TimeCDT,TemperatureF,Dew PointF,Humidity,Sea Level PressureIn,VisibilityMPH,Wind Direction,Wind SpeedMPH,Gust SpeedMPH,PrecipitationIn,Events,Conditions,WindDirDegrees,DateUTC
12:15 AM,68.4,57.4,68,29.99,10.0,SE,6.9,-,N/A,,Overcast,140,2012-10-22 05:15:00
12:35 AM,68.0,57.2,68,29.99,10.0,SE,6.9,-,N/A,,Mostly Cloudy,140,2012-10-22 05:35:00
12:55 AM,67.5,55.9,66,29.99,10.0,SE,5.8,-,N/A,,Scattered Clouds,140,2012-10-22 05:55:00
1:15 AM,66.4,55.6,68,30.00,10.0,SE,4.6,-,N/A,,Clear,140,2012-10-22 06:15:00
1:35 AM,66.0,55.4,69,30.00,10.0,SE,4.6,-,N/A,,Scattered Clouds,140,2012-10-22 06:35:00
1:55 AM,67.1,55.0,65,30.00,10.0,SE,4.6,-,N/A,,Mostly Cloudy,130,2012-10-22 06:55:00
2:15 AM,67.1,54.5,64,30.00,10.0,SE,5.8,-,N/A,,Overcast,140,2012-10-22 07:15:00
2:35 AM,67.1,54.0,63,30.01,10.0,SSE,6.9,-,N/A,,Overcast,150,2012-10-22 07:35:00
2:55 AM,66.7,53.8,63,30.01,10.0,SSE,6.9,-,N/A,,Overcast,150,2012-10-22 07:55:00
3:15 AM,65.5,53.2,65,30.00,10.0,SSE,8.1,-,N/A,,Scattered Clouds,150,2012-10-22 08:15:00
3:35 AM,64.4,53.6,68,30.00,10.0,SSE,8.1,-,N/A,,Scattered Clouds,150,2012-10-22 08:35:00
3:55 AM,65.7,52.7,63,29.99,10.0,SSE,8.1,-,N/A,,Mostly Cloudy,150,2012-10-22 08:55:00
4:15 AM,66.4,52.0,60,29.99,10.0,SSE,9.2,-,N/A,,Overcast,150,2012-10-22 09:15:00
4:35 AM,66.2,51.8,60,29.99,10.0,SSE,8.1,-,N/A,,Overcast,160,2012-10-22 09:35:00
4:55 AM,66.4,51.4,59,29.98,10.0,SSE,10.4,-,N/A,,Mostly Cloudy,160,2012-10-22 09:55:00
5:15 AM,66.2,51.3,59,29.99,10.0,SSE,11.5,-,N/A,,Mostly Cloudy,160,2012-10-22 10:15:00
5:35 AM,66.0,51.4,59,29.99,10.0,SSE,9.2,-,N/A,,Mostly Cloudy,160,2012-10-22 10:35:00
5:55 AM,65.7,51.8,61,30.00,10.0,SSE,11.5,-,N/A,,Mostly Cloudy,160,2012-10-22 10:55:00
6:15 AM,65.3,51.8,62,30.00,10.0,SSE,10.4,-,N/A,,Mostly Cloudy,160,2012-10-22 11:15:00
6:35 AM,64.9,51.8,62,30.00,10.0,SSE,11.5,-,N/A,,Mostly Cloudy,150,2012-10-22 11:35:00
6:55 AM,64.4,52.0,64,29.99,10.0,SSE,10.4,-,N/A,,Mostly Cloudy,160,2012-10-22 11:55:00
7:15 AM,64.0,52.5,66,29.99,10.0,SSE,12.7,16.1,N/A,,Mostly Cloudy,160,2012-10-22 12:15:00
7:35 AM,64.4,53.6,68,30.00,10.0,South,12.7,-,N/A,,Mostly Cloudy,170,2012-10-22 12:35:00
7:55 AM,63.7,52.9,68,30.00,10.0,SSE,11.5,-,N/A,,Scattered Clouds,160,2012-10-22 12:55:00
8:15 AM,65.5,53.4,65,30.00,10.0,South,12.7,17.3,N/A,,Mostly Cloudy,180,2012-10-22 13:15:00
8:35 AM,66.0,53.6,64,30.00,10.0,South,12.7,18.4,N/A,,Mostly Cloudy,170,2012-10-22 13:35:00
8:55 AM,67.8,54.0,61,30.00,10.0,South,16.1,23.0,N/A,,Scattered Clouds,170,2012-10-22 13:55:00
9:15 AM,68.9,54.7,60,29.99,10.0,South,16.1,24.2,N/A,,Scattered Clouds,170,2012-10-22 14:15:00
9:35 AM,69.3,55.2,61,29.98,10.0,South,17.3,24.2,N/A,,Clear,170,2012-10-22 14:35:00
9:55 AM,70.0,56.3,62,29.98,10.0,South,16.1,-,N/A,,Clear,170,2012-10-22 14:55:00
10:15 AM,70.9,57.4,62,29.99,10.0,South,15.0,-,N/A,Thunderstorm,Clear,180,2012-10-22 15:15:00
10:35 AM,72.5,58.1,60,29.99,10.0,South,17.3,26.5,N/A,,Clear,190,2012-10-22 15:35:00
10:55 AM,71.8,57.9,62,29.98,10.0,South,17.3,23.0,N/A,,Clear,180,2012-10-22 15:55:00
11:15 AM,72.5,58.3,61,29.98,10.0,South,17.3,25.3,N/A,,Clear,180,2012-10-22 16:15:00
11:35 AM,74.5,59.4,59,29.97,10.0,South,17.3,27.6,N/A,Thunderstorm,Clear,170,2012-10-22 16:35:00
11:55 AM,74.8,60.3,60,29.96,10.0,South,15.0,25.3,N/A,,Clear,180,2012-10-22 16:55:00
12:15 PM,77.9,61.5,57,29.96,10.0,South,20.7,26.5,N/A,,Clear,190,2012-10-22 17:15:00
12:35 PM,77.4,60.4,56,29.97,10.0,South,12.7,27.6,N/A,Thunderstorm,Clear,170,2012-10-22 17:35:00
12:55 PM,78.3,60.8,55,29.96,10.0,South,11.5,23.0,N/A,Thunderstorm,Clear,170,2012-10-22 17:55:00
1:15 PM,79.3,60.1,52,29.96,10.0,South,24.2,27.6,N/A,Thunderstorm,Clear,180,2012-10-22 18:15:00
1:35 PM,77.9,60.1,54,29.95,10.0,South,17.3,26.5,N/A,Thunderstorm,Thunderstorm,180,2012-10-22 18:35:00
1:55 PM,79.9,61.2,53,29.95,10.0,South,19.6,24.2,N/A,Thunderstorm,Clear,170,2012-10-22 18:55:00
2:15 PM,79.3,61.2,54,29.94,10.0,South,23.0,26.5,N/A,Thunderstorm,Clear,190,2012-10-22 19:15:00
2:35 PM,79.5,60.8,53,29.96,10.0,South,17.3,24.2,N/A,Thunderstorm,Thunderstorm,180,2012-10-22 19:35:00
2:55 PM,78.3,61.7,57,29.96,10.0,South,10.4,-,N/A,Thunderstorm,Thunderstorm,170,2012-10-22 19:55:00
3:15 PM,77.5,61.5,58,29.97,10.0,SSE,9.2,-,N/A,Thunderstorm,Thunderstorm,150,2012-10-22 20:15:00
3:35 PM,77.2,61.5,58,29.98,10.0,South,8.1,-,N/A,Thunderstorm,Thunderstorm,180,2012-10-22 20:35:00
3:55 PM,73.9,62.6,68,29.98,2.5,SSE,12.7,-,0.12,Rain-Thunderstorm,Heavy Thunderstorms and Rain,150,2012-10-22 20:55:00
4:15 PM,70.0,63.9,81,29.98,2.0,South,13.8,19.6,0.21,Rain-Thunderstorm,Light Thunderstorms and Rain,180,2012-10-22 21:15:00
4:35 PM,69.8,64.0,82,29.98,5.0,SE,6.9,-,0.23,Rain-Thunderstorm,Light Thunderstorms and Rain,130,2012-10-22 21:35:00
4:55 PM,70.3,63.5,79,29.97,10.0,SE,5.8,-,0.23,Rain-Thunderstorm,Light Thunderstorms and Rain,140,2012-10-22 21:55:00
5:15 PM,72.1,64.0,76,29.96,10.0,South,9.2,-,N/A,Thunderstorm,Clear,170,2012-10-22 22:15:00
5:35 PM,72.9,61.0,66,29.96,10.0,South,9.2,-,N/A,,Clear,170,2012-10-22 22:35:00
5:55 PM,72.3,59.5,64,29.96,10.0,South,12.7,-,N/A,,Clear,170,2012-10-22 22:55:00
6:15 PM,72.3,56.7,58,29.96,10.0,South,12.7,-,N/A,,Clear,180,2012-10-22 23:15:00
6:35 PM,71.6,54.9,55,29.97,10.0,South,10.4,-,N/A,,Clear,180,2012-10-22 23:35:00
7:15 PM,70.0,54.0,57,29.98,10.0,South,10.4,-,N/A,,Clear,190,2012-10-23 00:15:00
7:35 PM,70.0,53.6,56,29.98,10.0,South,10.4,-,N/A,,Clear,180,2012-10-23 00:35:00
7:55 PM,70.7,51.8,51,29.97,10.0,South,12.7,18.4,N/A,,Clear,180,2012-10-23 00:55:00
8:15 PM,70.3,51.6,51,29.97,10.0,South,11.5,-,N/A,,Clear,170,2012-10-23 01:15:00
8:35 PM,69.8,51.8,53,29.97,10.0,South,12.7,-,N/A,,Clear,180,2012-10-23 01:35:00
8:55 PM,70.2,51.3,51,29.98,10.0,South,12.7,18.4,N/A,,Clear,180,2012-10-23 01:55:00
9:15 PM,70.0,51.3,51,29.98,10.0,South,13.8,-,N/A,,Clear,180,2012-10-23 02:15:00
9:35 PM,70.2,51.1,51,29.97,10.0,South,15.0,-,N/A,,Clear,180,2012-10-23 02:35:00
9:55 PM,69.8,51.3,52,29.98,10.0,South,12.7,18.4,N/A,,Clear,190,2012-10-23 02:55:00
10:15 PM,69.1,51.8,54,29.98,10.0,South,11.5,-,N/A,,Clear,190,2012-10-23 03:15:00
10:35 PM,68.5,52.0,55,29.98,10.0,South,11.5,-,N/A,,Clear,190,2012-10-23 03:35:00
10:55 PM,68.4,52.2,56,29.98,10.0,South,10.4,-,N/A,,Clear,190,2012-10-23 03:55:00
11:15 PM,68.2,52.5,57,29.98,10.0,South,10.4,-,N/A,,Clear,190,2012-10-23 04:15:00
11:35 PM,67.3,52.5,59,29.97,10.0,South,11.5,-,N/A,,Clear,180,2012-10-23 04:35:00
11:55 PM,68.0,51.8,56,29.97,10.0,South,10.4,-,N/A,,Clear,180,2012-10-23 04:55:00